www.pogodaiklimat.ru

Погода и климат >> Архив погоды >> Мексика >> Rio Verde


ПОГОДА в Rio Verde

  • Прогноз погоды в Rio Verde
  • Монитор погоды в Rio Verde
  • Климат города

АРХИВ ПОГОДЫ в Rio Verde

Время (UTC), дата Ветер
(напр.,м/с)
 
Видим.   Явления Облачность Т
(С)
Тd
(С)
f
(%)
Тe
(С)
Тes
(С)
Комфортность P
(гПа)
Po
(гПа)
Тmin
(С)
Tmax
(С)
R
(мм)
R24
(мм)
S
(см)
00 14.09 штиль 0 18 км {дождь} 5/0 2000 м
[Ac cuf Cs]
+22.8 +21.7 94 +31 +31 очень
душно
1008.9 901.8 11
03 14.09 штиль 0 10 км 4/0
[As trans]
+21.4 +21.4 100 +27 +27 душно 1013.3 904.0
06 14.09 Ю 1 10 км 4/0
[As trans]
+21.0 +20.9 99 +27 +27 душно 1013.7 904.3 +19.4 +28.5
12 14.09 штиль 0 12 км 9/0 2000 м
[Ac cuf]
+19.9 +19.5 98 +23 +23 комфорт 1011.1 902.7 +19.2 +28.5
15 14.09 С 2 20 км 8/8 630 м
[Frnb]
+21.8 +20.5 92 +28 +29 душно 1012.4 903.8
18 14.09 ЮЗ 1 25 км 6/0
[Ac cuf]
+28.4 +23.3 74 +38 +51 опасность
солнечного
удара
1011.0 902.9 +19.2 +29.1
21 14.09 В 2 20 км 6/6 700 м
[Cu med, cong]
+30.8 +23.4 65 +42 +47 опасность
перегрева
1007.4 900.5
00 15.09 В 4 20 км 6/0 2000 м
[Ac cuf]
+27.2 +21.5 71 +35 +35 очень
душно
1007.5 901.3 +19.2 +31.5
03 15.09 ЮВ 2 10 км 5/0
[Ac trans]
+23.1 +18.8 77 +29 +29 очень
душно
1012.0 903.5
06 15.09 В 1 10 км 5/0
[As trans]
+22.5 +19.4 83 +29 +29 очень
душно
1011.4 904.7 +31.5
12 15.09 З 1 10 км 8/0
[As trans]
+21.0 +20.4 96 +27 +27 душно 1012.0 904.0 +20.0 +31.5
15 15.09 ЮЗ 1 15 км 10/0
[As trans]
+23.4 +22.9 97 +33 +36 очень
душно
1012.8 904.5
18 15.09 ЮЗ 1 20 км 5/0
[Ac cuf]
+29.0 +24.0 74 +40 +54 опасность
солнечного
удара
1010.6 903.0 +20.0 +29.5
21 15.09 З 1 25 км ясно +33.2 +23.7 58 +45 +60 опасность
перегрева
1006.9 900.5
00 16.09 ЮЗ 1 25 км ясно +27.8 +23.0 75 +37 +38 очень
душно
1005.6 900.0 +20.0 +34.5
03 16.09 СЗ 1 10 км 8/0
[As trans]
+23.8 +21.3 86 +30 +30 очень
душно
1009.4 903.7
06 16.09 З 1 10 км 10/0
[As trans]
+22.0 +21.5 97 +29 +29 очень
душно
1012.2 905.8 +20.0 +34.5
12 16.09 Ю 1 10 км 10/0
[As trans]
+20.4 +19.8 96 +26 +26 душно 1012.4 904.4 +19.5 +34.5
15 16.09 Ю 1 12 км 10/0
[As trans]
+22.6 +21.8 95 +30 +33 очень
душно
1012.8 904.5
18 16.09 ЮЗ 1 20 км 10/0
[As trans]
+26.4 +23.7 85 +36 +45 очень
душно
1012.1 904.1 +19.5 +27.0
21 16.09 З 1 25 км 5/0
[As trans]
+30.4 +21.7 60 +39 +49 очень
душно
1008.8 901.8
00 17.09 З 1 20 км сильный дождь {морось} 10/0
[]
+23.0 +22.2 95 +31 +32 очень
душно
1008.4 901.7 2
03 17.09 Ю 1 10 км 10/0
[As trans]
+22.0 +21.7 98 +29 +29 очень
душно
1012.4 905.4
06 17.09 Ю 1 10 км 10/0
[As trans]
+21.4 +20.8 96 +27 +27 душно 1013.3 905.8 +19.5 +31.5
12 17.09 штиль 0 10 км 9/0
[As op]
+20.8 +20.0 95 +25 +25 комфорт 1012.0 903.7 +20.1
15 17.09 штиль 0 18 км 10/0
[As op]
+21.4 +20.3 93 +27 +28 душно 1014.3 905.6
18 17.09 В 2 20 км 9/0
[Ac cuf]
+25.1 +22.1 83 +32 +39 очень
душно
1013.5 905.1 +20.1 +25.7
21 17.09 СВ 1 18 км 6/6 600 м
[Cu med, cong]
+27.4 +22.3 74 +36 +42 очень
душно
1010.4 902.8
00 18.09 В 1 16 км 10/0
[As op]
+24.8 +20.6 77 +31 +31 очень
душно
1010.4 903.1 +20.1 +28.0
06 18.09 В 80 10 км 5/0
[As op]
+20.0 +18.3 90 +20 +20 1014.5 906.6 +28.0
12 18.09 штиль 0 10 км 9/0 2000 м
[As op]
+20.3 +19.2 93 +24 +24 комфорт 1014.3 905.5 +19.6 +28.0
15 18.09 С 1 18 км 9/0
[Ac cuf]
+21.6 +19.8 89 +27 +30 душно 1014.9 905.9
18 18.09 ЮЗ 1 20 км 9/3 800 м
[Frnb As op]
+26.4 +22.6 80 +35 +40 очень
душно
1014.1 905.6 +19.6 +27.1
21 18.09 штиль 0 22 км 6/3 660 м
[Cu hum Ac trans]
+29.0 +22.8 69 +38 +47 очень
душно
1010.8 903.3
00 19.09 В 2 25 км ясно +28.0 +21.5 68 +36 +36 очень
душно
1008.5 902.0 +19.6 +31.0
03 19.09 штиль 0 10 км ясно +22.5 +17.9 75 +28 +28 душно 1013.5 904.6
06 19.09 Ю 1 10 км 4/0
[Ac trans]
+21.3 +19.5 89 +26 +26 душно 1012.6 905.6 +19.6 +31.0
12 19.09 штиль 0 10 км 9/0
[Ac cuf]
+20.4 +19.0 92 +24 +24 комфорт 1013.0 904.6 +19.8
15 19.09 штиль 0 18 км 10/0
[As op]
+22.3 +20.3 88 +29 +30 очень
душно
1014.1 905.5
18 19.09 В 2 20 км 8/1 800 м
[Frnb As op]
+27.7 +23.0 76 +37 +43 очень
душно
1012.6 904.5 +19.8 +28.3
21 19.09 СВ 3 25 км 6/3 750 м
[Cu med, cong Ac trans]
+32.2 +23.2 59 +43 +48 опасность
перегрева
1008.1 901.4
00 20.09 штиль 0 18 км в посл. час морось 9/3 600 м
[Cu med, cong As op]
+25.2 +22.5 85 +33 +33 очень
душно
1008.0 901.8 0.6
06 20.09 штиль 0 10 км 8/0
[As op]
+21.9 +21.3 96 +28 +28 душно 1014.1 905.0 +19.8 +32.5
12 20.09 СЗ 1 10 км морось 10/0
[As op]
+20.1 +19.8 98 +25 +25 комфорт 1012.9 904.4 +19.4 4
15 20.09 СЗ 1 15 км слабая морось 9/0
[Ac cuf]
+21.8 +20.7 93 +28 +30 душно 1013.9 905.3 2
18 20.09 ЮВ 1 25 км 5/5 800 м
[Cu hum]
+27.6 +23.0 76 +37 +48 очень
душно
1012.2 904.0 +19.4 +28.4 2

 

Местоположение метеостанции Rio Verde (Мексика): широта 21.93 долгота -99.98 высота над уровнем моря 983 м.

В архиве по умолчанию представлена погода в Rio Verde за последнюю неделю. Архивные данные за месяц целиком и за предыдущие месяцы, начиная с января 2011 года, Вы можете получить, выбрав интересующий диапазон дат из раскрывающегося списка и нажав кнопку "Ввод!".


*Определитесь, кто Вы:
робот инопланетянин человек

Внимание! Время в таблицах - всемирное. Для получения местного времени необходимо прибавить поправку, которая в Rio Verde равна -6 ч.

Смотрите также архив погоды в соседних городах и на ближайших метеорологических станциях:

Погода в San Luis Potosi (Мексика) (99 км)
Погода в Tamuin (Мексика) (126 км)
Погода в Matlapa (Мексика) (139 км)
Погода в Queretaro (Мексика) (156 км)
Погода в Guanajuato (Мексика) (163 км)
Погода в Lagos De Moreno (Мексика) (211 км)
Погода в Ciudad Victoria (Мексика) (218 км)
Погода в Tampico (Мексика) (222 км)
Погода в Pachuca (Мексика) (237 км)
Погода в Aguascalientes (Мексика) (240 км)

Пояснения к столбцам:

Ветер - указаны скорость ветра в м/с - средняя за 10 мин, порывы в срок и между сроками (в фигурных скобках) и направление, откуда дует ветер: С - северный, СВ - северо-восточный, В - восточный, ЮВ - юго-восточный, Ю - южный, ЮЗ - юго-западный, З - западный, СЗ - северо-западный.
Видимость - горизонтальная дальность видимости в метрах или километрах. При видимости от 1 до 10 км при отсутствии осадков обычно наблюдается дымка, при ухудшении видимости до 1 км и менее - туман. В сухую погоду видимость может ухудшаться дымом, пылью или мглою.
Явления - указаны атмосферные явления, наблюдавшиеся в срок или в последний час перед сроком; фигурными скобками обозначены явления, наблюдавшиеся между сроками (за 1-3 часа до срока); квадратными скобками обозначены град или гололедные отложения с указанием их диаметра в мм.
Облачность - указаны через наклонную черту общая и нижняя облачность в баллах и высота нижней границы облаков в метрах; квадратными скобками обозначены формы облаков: Ci - перистые, Cs - перисто-слоистые, Cc - перисто-кучевые, Ac - высококучевые, As - высокослоистые, Sc - слоисто-кучевые, Ns - слоисто-дождевые, Cu - кучевые, Cb - кучево-дождевые. Подробнее классификацию облаков см. в Атласе облаков (PDF).
T - Температура воздуха - температура, измеренная на высоте 2 м над землей.
Td - Температура точки росы - температура, при понижении до которой содержащийся в воздухе водяной пар достигнет насыщения.
f - Относительная влажность воздуха - влажноcть воздуха, измеренная на высоте 2 м над землей.
Te - Эффективная температура - температура, которую ощущает одетый по сезону человек в тени. Характеристика душности погоды. При расчете учитывается влияние влажности воздуха и скорости ветра на теплоощущения человека.
Tes - Эффективная температура на солнце - температура, которую ощущает человек, с поправкой на солнечный нагрев. Характеристика знойности погоды. Зависит от высоты солнца над горизонтом, облачности и скорости ветра. Ночью, в пасмурную погоду, а также при ветре 12 м/с и более поправка равна нулю.
P - Атмосферное давление - приведенное к уровню моря атмосферное давление.
Po - Атмосферное давление - измеренное на уровне метеостанции атмосферное давление.
Tmin - Минимальная температура - минимум температуры воздуха на высоте 2 м над землей.
Tmax - Максимальная температура - максимум температуры воздуха на высоте 2 м над землей.
R - Количество осадков - Количество выпавших осадков за период времени, мм. При наведении курсора мыши на число - период времени, за который выпало указанное количество осадков.
R24 - Количество осадков - Количество выпавших осадков за 24 часа, мм.
S - Снежный покров - Высота снежного покрова, см. При наведении курсора мыши на число - состояние снежного покрова и степень покрытия местности в баллах.